Location: Elizabeth Ann Machol Dragonfly Observatory
(32.8132°N, 108.2740°W)
Time: 00:56:28
(UTC-06:00)

N. Korean satellite - Visible Passes

Search period start: 20 October 2019 00:00
Search period end: 30 October 2019 00:00
Orbit: 455 x 508 km, 97.2° (Epoch: 19 October)

Date Brightness Start Highest point End Pass type
(mag) Time Alt. Az. Time Alt. Az. Time Alt. Az.
20 Oct 8.1 06:43:37 10° NNE 06:47:06 43° E 06:50:35 10° S visible
21 Oct 9.7 06:19:03 10° NE 06:21:44 19° E 06:24:26 10° SE visible
23 Oct 9.4 19:06:04 10° SSW 19:08:47 22° W 19:11:32 10° NW visible
24 Oct 8.6 06:35:55 10° NNE 06:39:16 33° E 06:42:37 10° SSE visible
25 Oct 10.1 06:11:36 10° ENE 06:13:52 16° E 06:16:08 10° SE visible
26 Oct 10.1 19:24:42 10° WSW 19:26:18 13° W 19:27:55 10° WNW visible
27 Oct 7.3 06:53:05 10° NNE 06:56:44 62° E 07:00:23 10° S visible
27 Oct 8.9 18:57:52 10° SSW 19:00:52 29° W 19:03:55 10° NW visible
28 Oct 9.1 06:28:13 10° NE 06:31:23 26° E 06:34:32 10° SSE visible
29 Oct 10.3 06:04:21 10° ENE 06:05:57 12° E 06:07:33 10° ESE visible
